Change the Weather History Date:

Saturday, May 4, 2013

  Actual Average (KDBQ) Record (KDBQ)
Temperature  
Mean Temperature 57 °F 55 °F  
Max Temperature 68 °F 65 °F 89 °F (1918)
Min Temperature 46 °F 45 °F 25 °F (2011)
Degree Days  
Heating Degree Days 8 10  
Month to date heating degree days 43  
Since 1 July heating degree days 6864  
Cooling Degree Days 0 0  
Month to date cooling degree days 0  
Year to date cooling degree days 5  
Growing Degree Days 7 (Base 50)    
Moisture  
Dew Point 50 °F    
Average Humidity 77    
Maximum Humidity 93    
Minimum Humidity 56    
Precipitation  
Precipitation 0.00 in 0.14 in 1.33 in (1913)
Month to date precipitation 0.54  
Year to date precipitation 9.22  
Snow  
Snow 0.00 in 0.10 in - ()
Month to date snowfall 0.1  
Since 1 July snowfall 42.0  
Snow Depth -    
Sea Level Pressure  
Sea Level Pressure 29.99 in    
Wind  
Wind Speed 11 mph (ENE)    
Max Wind Speed 16 mph    
Max Gust Speed 21 mph    
Visibility 9 miles    
Events      
T = Trace of Precipitation, MM = Missing Value Source: NWS Daily Summary

Daily Weather History Graph

Daily Weather History Graph

Search for Another Location

Airport or City:

Trip Planner

Search our weather history database for the weather conditions in past years. The results will help you decide how hot, cold, wet, or windy it might be!

Date:

Astronomy

May. 04, 2013 Rise Set
Actual Time 5:51 AM CDT 8:05 PM CDT
Civil Twilight 5:20 AM CDT 8:37 PM CDT
Nautical Twilight 4:42 AM CDT 9:15 PM CDT
Astronomical Twilight 3:59 AM CDT 9:58 PM CDT
Moon 2:57 AM CDT (5/4) 2:57 PM CDT (5/4)
Length of Visible Light 15h 16m
Length of Day
14h 13m
Waning Crescent, 27% of the Moon is Illuminated
May 4
Waning Crescent
May 9
New
May 17
First Quarter
May 24
Full
May 31
Last Quarter

Hourly Weather History & Observations

Time (CDT) Temp. Windchill Dew Point Humidity Pressure Visibility Wind Dir Wind Speed Gust Speed Precip Events Conditions
12:15 AM 46.4 °F 41.9 °F 44.6 °F 93% 29.95 in 5.0 mi NE 9.2 mph 18.4 mph N/A   Overcast
12:35 AM 46.4 °F 41.1 °F 44.6 °F 93% 29.95 in 5.0 mi NE 11.5 mph - N/A   Overcast
12:55 AM 46.4 °F 40.4 °F 44.6 °F 93% 29.94 in 7.0 mi NE 13.8 mph - N/A   Mostly Cloudy
1:15 AM 48.2 °F - 44.6 °F 87% 29.95 in 7.0 mi ENE 12.7 mph 20.7 mph N/A   Scattered Clouds
1:35 AM 48.2 °F - 44.6 °F 87% 29.94 in 7.0 mi ENE 13.8 mph - N/A   Scattered Clouds
1:55 AM 46.4 °F 41.5 °F 44.6 °F 93% 29.95 in 7.0 mi ENE 10.4 mph 17.3 mph N/A   Scattered Clouds
2:15 AM 48.2 °F - 44.6 °F 87% 29.97 in 7.0 mi East 9.2 mph - N/A   Mostly Cloudy
2:35 AM 48.2 °F - 44.6 °F 87% 29.96 in 7.0 mi ENE 8.1 mph - N/A   Scattered Clouds
2:55 AM 48.2 °F - 44.6 °F 87% 29.95 in 7.0 mi NE 8.1 mph - N/A   Scattered Clouds
3:15 AM 48.2 °F - 46.4 °F 93% 29.96 in 7.0 mi ENE 11.5 mph - N/A   Mostly Cloudy
3:35 AM 48.2 °F - 46.4 °F 93% 29.95 in 7.0 mi NE 9.2 mph - N/A   Mostly Cloudy
3:55 AM 48.2 °F - 44.6 °F 87% 29.95 in 10.0 mi ENE 10.4 mph - N/A   Mostly Cloudy
4:15 AM 48.2 °F - 46.4 °F 93% 29.94 in 10.0 mi ENE 13.8 mph - N/A   Mostly Cloudy
4:35 AM 50.0 °F - 46.4 °F 87% 29.95 in 10.0 mi ENE 12.7 mph - N/A   Mostly Cloudy
4:55 AM 50.0 °F - 46.4 °F 87% 29.96 in 10.0 mi ENE 12.7 mph - N/A   Scattered Clouds
5:15 AM 48.2 °F - 46.4 °F 93% 29.95 in 10.0 mi ENE 10.4 mph - N/A   Mostly Cloudy
5:35 AM 48.2 °F - 44.6 °F 87% 29.95 in 10.0 mi NE 11.5 mph - N/A   Scattered Clouds
5:55 AM 48.2 °F - 44.6 °F 87% 29.96 in 10.0 mi NE 11.5 mph 16.1 mph N/A   Scattered Clouds
6:15 AM 48.2 °F - 44.6 °F 87% 29.95 in 10.0 mi NE 12.7 mph - N/A   Clear
6:35 AM 48.2 °F - 44.6 °F 87% 29.95 in 10.0 mi NE 11.5 mph - N/A   Clear
6:55 AM 48.2 °F - 44.6 °F 87% 29.96 in 10.0 mi NE 11.5 mph - N/A   Scattered Clouds
7:15 AM 48.2 °F - 44.6 °F 87% 29.97 in 10.0 mi NE 11.5 mph - N/A   Scattered Clouds
7:35 AM 50.0 °F - 46.4 °F 87% 29.98 in 10.0 mi NE 11.5 mph 17.3 mph N/A   Scattered Clouds
7:55 AM 50.0 °F - 46.4 °F 87% 29.98 in 10.0 mi ENE 12.7 mph 16.1 mph N/A   Scattered Clouds
8:15 AM 51.8 °F - 46.4 °F 82% 29.99 in 10.0 mi ENE 12.7 mph 18.4 mph N/A   Scattered Clouds
8:35 AM 51.8 °F - 48.2 °F 88% 29.99 in 10.0 mi ENE 13.8 mph - N/A   Scattered Clouds
8:55 AM 51.8 °F - 48.2 °F 88% 30.00 in 10.0 mi ENE 13.8 mph 17.3 mph N/A   Scattered Clouds
9:15 AM 53.6 °F - 50.0 °F 88% 30.00 in 10.0 mi ENE 12.7 mph - N/A   Mostly Cloudy
9:35 AM 55.4 °F - 51.8 °F 88% 30.01 in 10.0 mi ENE 11.5 mph - N/A   Overcast
9:55 AM 57.2 °F - 51.8 °F 82% 30.01 in 10.0 mi ENE 10.4 mph - N/A   Overcast
10:15 AM 59.0 °F - 51.8 °F 77% 30.01 in 10.0 mi NE 10.4 mph - N/A   Scattered Clouds
10:35 AM 60.8 °F - 53.6 °F 77% 30.01 in 10.0 mi ENE 10.4 mph - N/A   Scattered Clouds
10:55 AM 59.0 °F - 53.6 °F 82% 30.02 in 7.0 mi ENE 12.7 mph 17.3 mph N/A   Mostly Cloudy
11:15 AM 60.8 °F - 53.6 °F 77% 30.02 in 10.0 mi ENE 15.0 mph - N/A   Overcast
11:35 AM 62.6 °F - 53.6 °F 72% 30.02 in 10.0 mi ENE 15.0 mph - N/A   Mostly Cloudy
11:55 AM 64.4 °F - 55.4 °F 73% 30.02 in 10.0 mi NE 15.0 mph 18.4 mph N/A   Scattered Clouds
12:15 PM 64.4 °F - 55.4 °F 73% 30.01 in 10.0 mi ENE 12.7 mph 17.3 mph N/A   Scattered Clouds
12:35 PM 64.4 °F - 53.6 °F 68% 30.02 in 10.0 mi ENE 15.0 mph 18.4 mph N/A   Mostly Cloudy
12:55 PM 64.4 °F - 55.4 °F 73% 30.01 in 10.0 mi ENE 13.8 mph - N/A   Mostly Cloudy
1:15 PM 64.4 °F - 55.4 °F 73% 30.01 in 10.0 mi ENE 10.4 mph - N/A   Overcast
1:35 PM 64.4 °F - 55.4 °F 73% 30.01 in 10.0 mi ENE 11.5 mph - N/A   Overcast
1:55 PM 64.4 °F - 53.6 °F 68% 30.00 in 10.0 mi NE 11.5 mph 18.4 mph N/A   Overcast
2:15 PM 66.2 °F - 55.4 °F 68% 30.00 in 10.0 mi NE 12.7 mph 17.3 mph N/A   Mostly Cloudy
2:35 PM 64.4 °F - 55.4 °F 73% 30.00 in 10.0 mi NE 15.0 mph 19.6 mph N/A   Mostly Cloudy
2:55 PM 66.2 °F - 53.6 °F 64% 30.00 in 10.0 mi NE 16.1 mph - N/A   Overcast
3:15 PM 64.4 °F - 55.4 °F 73% 29.99 in 10.0 mi NNE 13.8 mph - N/A   Overcast
3:35 PM 66.2 °F - 53.6 °F 64% 29.99 in 10.0 mi NE 12.7 mph - N/A   Overcast
3:55 PM 66.2 °F - 55.4 °F 68% 29.98 in 10.0 mi NNE 15.0 mph - N/A   Mostly Cloudy
4:15 PM 68.0 °F - 53.6 °F 60% 29.98 in 10.0 mi NE 15.0 mph 18.4 mph N/A   Scattered Clouds
4:35 PM 68.0 °F - 53.6 °F 60% 29.98 in 10.0 mi ENE 15.0 mph - N/A   Mostly Cloudy
4:55 PM 68.0 °F - 51.8 °F 56% 29.99 in 10.0 mi ENE 15.0 mph 18.4 mph N/A   Scattered Clouds
5:15 PM 66.2 °F - 51.8 °F 60% 29.99 in 10.0 mi NE 13.8 mph - N/A   Scattered Clouds
5:35 PM 66.2 °F - 53.6 °F 64% 29.99 in 10.0 mi NE 11.5 mph - N/A   Scattered Clouds
5:55 PM 66.2 °F - 53.6 °F 64% 30.00 in 10.0 mi NE 9.2 mph - N/A   Scattered Clouds
6:15 PM 64.4 °F - 53.6 °F 68% 30.00 in 10.0 mi NE 9.2 mph - N/A   Clear
6:35 PM 64.4 °F - 51.8 °F 64% 30.00 in 10.0 mi NE 6.9 mph - N/A   Clear
6:55 PM 64.4 °F - 51.8 °F 64% 30.00 in 10.0 mi NE 6.9 mph - N/A   Clear
7:15 PM 64.4 °F - 51.8 °F 64% 30.01 in 10.0 mi ENE 9.2 mph - N/A   Scattered Clouds
7:35 PM 62.6 °F - 51.8 °F 68% 30.01 in 10.0 mi ENE 6.9 mph - N/A   Scattered Clouds
7:55 PM 62.6 °F - 48.2 °F 59% 30.02 in 10.0 mi East 9.2 mph - N/A   Clear
8:15 PM 60.8 °F - 48.2 °F 63% 30.03 in 10.0 mi East 9.2 mph - N/A   Clear
8:35 PM 60.8 °F - 50.0 °F 68% 30.03 in 10.0 mi East 6.9 mph - N/A   Clear
8:55 PM 59.0 °F - 48.2 °F 67% 30.04 in 10.0 mi East 5.8 mph - N/A   Clear
9:15 PM 59.0 °F - 48.2 °F 67% 30.04 in 10.0 mi NNE 4.6 mph - N/A   Clear
9:35 PM 59.0 °F - 48.2 °F 67% 30.04 in 10.0 mi NE 4.6 mph - N/A   Clear
9:55 PM 59.0 °F - 48.2 °F 67% 30.04 in 10.0 mi NE 4.6 mph - N/A   Clear
10:15 PM 59.0 °F - 48.2 °F 67% 30.05 in 10.0 mi NE 5.8 mph - N/A   Mostly Cloudy
10:35 PM 59.0 °F - 48.2 °F 67% 30.04 in 10.0 mi ENE 4.6 mph - N/A   Overcast
10:55 PM 57.2 °F - 48.2 °F 72% 30.05 in 10.0 mi SE 5.8 mph - N/A   Mostly Cloudy
11:55 PM 57.2 °F - 46.4 °F 67% 30.06 in 10.0 mi Calm Calm - N/A   Scattered Clouds